TimeEST,TemperatureF,Dew PointF,Humidity,Sea Level PressureIn,VisibilityMPH,Wind Direction,Wind SpeedMPH,Gust SpeedMPH,PrecipitationIn,Events,Conditions,WindDirDegrees,DateUTC
12:15 AM,22.3,20.7,93,29.82,2.5,North,11.5,17.3,N/A,Snow,Light Snow,350,2012-12-28 05:15:00
12:35 AM,22.1,20.3,93,29.83,3.0,North,11.5,16.1,N/A,,Overcast,350,2012-12-28 05:35:00
12:55 AM,22.1,20.3,93,29.84,4.0,North,10.4,16.1,N/A,Snow,Light Snow,350,2012-12-28 05:55:00
1:15 AM,22.1,20.3,93,29.85,3.0,North,9.2,-,N/A,,Overcast,350,2012-12-28 06:15:00
1:35 AM,22.1,20.3,93,29.87,2.5,NNW,8.1,16.1,N/A,,Overcast,340,2012-12-28 06:35:00
1:55 AM,22.1,20.3,93,29.88,2.5,NNW,5.8,-,N/A,Snow,Light Snow,340,2012-12-28 06:55:00
2:15 AM,21.0,19.4,93,29.89,4.0,NNW,6.9,-,N/A,Snow,Light Snow,340,2012-12-28 07:15:00
2:35 AM,20.8,19.2,93,29.90,5.0,North,5.8,-,N/A,Snow,Light Snow,350,2012-12-28 07:35:00
2:55 AM,20.5,18.7,93,29.90,7.0,North,6.9,-,N/A,Snow,Light Snow,350,2012-12-28 07:55:00
3:15 AM,20.8,18.9,92,29.91,7.0,NNW,5.8,-,N/A,,Overcast,330,2012-12-28 08:15:00
3:35 AM,20.8,18.9,92,29.92,10.0,NNW,6.9,-,N/A,,Overcast,330,2012-12-28 08:35:00
3:55 AM,21.0,18.7,91,29.92,7.0,North,6.9,-,N/A,Snow,Light Snow,350,2012-12-28 08:55:00
4:15 AM,21.0,18.9,91,29.92,5.0,NNW,4.6,-,N/A,Snow,Light Snow,340,2012-12-28 09:15:00
4:35 AM,20.8,18.7,91,29.92,7.0,NNW,3.5,-,N/A,Snow,Light Snow,330,2012-12-28 09:35:00
4:55 AM,21.0,18.9,91,29.92,5.0,NW,3.5,-,N/A,Snow,Light Snow,310,2012-12-28 09:55:00
5:15 AM,21.0,19.0,92,29.93,7.0,Calm,Calm,-,N/A,,Overcast,0,2012-12-28 10:15:00
5:35 AM,21.2,19.2,92,29.94,4.0,Calm,Calm,-,N/A,,Overcast,0,2012-12-28 10:35:00
5:55 AM,21.4,19.6,93,29.94,4.0,Calm,Calm,-,N/A,,Overcast,0,2012-12-28 10:55:00
6:15 AM,21.6,19.8,93,29.94,7.0,Calm,Calm,-,N/A,,Overcast,0,2012-12-28 11:15:00
6:35 AM,22.1,20.3,93,29.95,10.0,Calm,Calm,-,N/A,,Overcast,0,2012-12-28 11:35:00
6:55 AM,22.1,20.3,93,29.95,10.0,Calm,Calm,-,N/A,,Overcast,0,2012-12-28 11:55:00
7:15 AM,22.1,20.1,92,29.95,10.0,Calm,Calm,-,N/A,,Overcast,0,2012-12-28 12:15:00
7:35 AM,22.1,20.1,92,29.97,10.0,Calm,Calm,-,N/A,,Overcast,0,2012-12-28 12:35:00
7:55 AM,22.1,20.1,92,29.97,10.0,West,3.5,-,N/A,,Overcast,280,2012-12-28 12:55:00
8:15 AM,22.1,19.9,91,29.99,10.0,WNW,3.5,-,N/A,,Overcast,290,2012-12-28 13:15:00
8:35 AM,22.1,19.8,91,29.99,10.0,WNW,4.6,-,N/A,,Overcast,290,2012-12-28 13:35:00
9:15 AM,21.0,18.1,89,30.01,10.0,WNW,9.2,-,N/A,,Overcast,290,2012-12-28 14:15:00
9:35 AM,20.8,17.4,87,30.02,10.0,WNW,5.8,-,N/A,,Overcast,290,2012-12-28 14:35:00
9:55 AM,20.8,17.2,86,30.02,10.0,WNW,6.9,-,N/A,,Overcast,290,2012-12-28 14:55:00
10:15 AM,21.0,17.2,85,30.02,10.0,WNW,4.6,-,N/A,,Overcast,300,2012-12-28 15:15:00
10:35 AM,21.0,16.9,84,30.02,10.0,WNW,3.5,-,N/A,,Overcast,300,2012-12-28 15:35:00
10:55 AM,22.1,17.6,83,30.02,10.0,WNW,3.5,-,N/A,,Overcast,290,2012-12-28 15:55:00
11:15 AM,22.1,17.1,81,30.02,10.0,West,5.8,-,N/A,,Overcast,270,2012-12-28 16:15:00
11:35 AM,22.1,16.5,79,30.01,10.0,Calm,Calm,-,N/A,,Overcast,0,2012-12-28 16:35:00
11:55 AM,22.1,16.7,80,30.01,10.0,Calm,Calm,-,N/A,,Overcast,0,2012-12-28 16:55:00
12:15 PM,21.7,16.2,79,30.00,10.0,Calm,Calm,-,N/A,,Overcast,0,2012-12-28 17:15:00
12:55 PM,24.6,17.4,74,30.00,10.0,NW,4.6,-,N/A,,Scattered Clouds,320,2012-12-28 17:55:00
1:15 PM,24.6,17.1,73,30.00,10.0,North,5.8,-,N/A,,Scattered Clouds,360,2012-12-28 18:15:00
1:35 PM,23.2,16.0,74,30.00,10.0,North,4.6,-,N/A,,Clear,10,2012-12-28 18:35:00
1:55 PM,22.3,14.9,73,30.00,10.0,Calm,Calm,-,N/A,,Clear,0,2012-12-28 18:55:00
2:15 PM,22.8,15.4,73,30.00,10.0,North,4.6,-,N/A,,Clear,360,2012-12-28 19:15:00
2:35 PM,22.3,14.9,73,30.00,10.0,NNE,4.6,-,N/A,,Clear,20,2012-12-28 19:35:00
2:55 PM,22.1,14.9,74,30.01,10.0,North,5.8,-,N/A,,Clear,10,2012-12-28 19:55:00
3:15 PM,20.3,14.0,77,30.01,10.0,North,4.6,-,N/A,,Clear,360,2012-12-28 20:15:00
3:35 PM,19.6,13.3,77,30.02,10.0,NNE,6.9,-,N/A,,Clear,20,2012-12-28 20:35:00
3:55 PM,18.5,12.9,79,30.02,10.0,NNE,4.6,-,N/A,,Clear,20,2012-12-28 20:55:00
4:15 PM,18.3,13.1,80,30.02,10.0,Calm,Calm,-,N/A,,Clear,0,2012-12-28 21:15:00
4:35 PM,17.1,12.2,81,30.03,10.0,Calm,Calm,-,N/A,,Clear,0,2012-12-28 21:35:00
4:55 PM,17.1,12.7,83,30.04,10.0,Calm,Calm,-,N/A,,Clear,0,2012-12-28 21:55:00
5:15 PM,14.7,10.6,84,30.04,10.0,Calm,Calm,-,N/A,,Clear,0,2012-12-28 22:15:00
5:35 PM,12.6,9.1,86,30.05,10.0,Calm,Calm,-,N/A,,Clear,0,2012-12-28 22:35:00
5:55 PM,12.0,9.5,90,30.05,10.0,Calm,Calm,-,N/A,,Clear,0,2012-12-28 22:55:00
6:15 PM,10.2,7.9,90,30.05,10.0,Calm,Calm,-,N/A,,Clear,0,2012-12-28 23:15:00
6:35 PM,12.0,9.5,90,30.06,10.0,Calm,Calm,-,N/A,,Clear,0,2012-12-28 23:35:00
6:55 PM,12.0,9.9,91,30.06,10.0,Calm,Calm,-,N/A,,Clear,0,2012-12-28 23:55:00
7:15 PM,9.5,7.0,90,30.06,10.0,Calm,Calm,-,N/A,,Clear,0,2012-12-29 00:15:00
7:35 PM,9.3,6.6,89,30.05,10.0,Calm,Calm,-,N/A,,Clear,0,2012-12-29 00:35:00
8:35 PM,9.5,6.8,89,30.06,10.0,ESE,3.5,-,N/A,,Mostly Cloudy,110,2012-12-29 01:35:00
8:55 PM,9.5,7.0,90,30.06,10.0,East,3.5,-,N/A,,Overcast,80,2012-12-29 01:55:00
9:15 PM,9.5,7.2,90,30.06,10.0,SE,3.5,-,N/A,,Overcast,130,2012-12-29 02:15:00
9:35 PM,12.0,10.0,92,30.07,10.0,East,4.6,-,N/A,,Overcast,100,2012-12-29 02:35:00
9:55 PM,12.6,10.2,90,30.06,10.0,East,4.6,-,N/A,,Overcast,100,2012-12-29 02:55:00
10:15 PM,14.5,12.2,90,30.06,10.0,East,3.5,-,N/A,,Overcast,100,2012-12-29 03:15:00
10:35 PM,13.5,11.1,90,30.06,10.0,East,3.5,-,N/A,,Overcast,90,2012-12-29 03:35:00
10:55 PM,12.0,9.5,90,30.06,10.0,Calm,Calm,-,N/A,,Overcast,0,2012-12-29 03:55:00
11:15 PM,12.0,9.7,90,30.06,10.0,ESE,3.5,-,N/A,,Overcast,110,2012-12-29 04:15:00
11:35 PM,14.5,12.6,92,30.05,10.0,Calm,Calm,-,N/A,,Overcast,0,2012-12-29 04:35:00
11:55 PM,14.5,12.4,91,30.05,10.0,Calm,Calm,-,N/A,,Overcast,0,2012-12-29 04:55:00